User: anonymous   Login
Location: Ottawa
(45.4170°N, 75.7000°W)
Time: 17:20:04
(UTC-04:00)
Language:

Aureole 3 Rocket - Orbit

View from above orbital plane
View from above orbital plane
View from above satellite
View from above satellite

Ground track
Ground track

The orbit data is extracted from the following two-line orbital elements,

1 12849U 81094B   18147.24099188  .00000276  00000-0  23966-4 0  9993
2 12849  82.4932 262.6613 0901777 209.7289 144.9600 13.50349332788356
Epoch (UTC): 27 May 2018 05:47:01
Eccentricity: 0.0901777
inclination: 82.4932°
perigee height: 399 km
apogee height: 1743 km
right ascension of ascending node: 262.6613°
argument of perigee: 209.7289°
revolutions per day: 13.50349332
mean anomaly at epoch: 144.9600°
orbit number at epoch: 78835

The dashed part of the orbit path shows where the satellite is in the earth's shadow,  

DLR